STARLINK-32650, 62231

Orbit data source: Space-Track

STARLINK-32650, 62231 is a payload satellite owned by SpaceX/Seattle (US) in LEO that was launched on Thu, 05 Dec 2024 UTC via an FALCON 9 launch vehicle from the Air Force Western Test Range (AFWTR). Payload-class satellites include a variety of spacecraft equipped with specific instruments for various scientific and technological missions. These include communications satellites like Starlink; space stations such as the ISS; scientific satellites like the Hubble; Earth observation satellites from companies like Planet Labs, Umbra, and HawkEye 360; GPS; miniature CubeSats for education and research; and military/defense satellites.

Loading next visibility...
Identifier
62231, 2024-231P
Orbit
LEO
Country
Flag of USUS
Related business
Manufacturer
SpaceX/Seattle
Mission
Operational Commercial Communications
Bus & Motor
STARLINK V2M, Unknown motor
Mass
730 kg wet, ~700 kg dry
Launch date (UTC)
2024-12-05 (2 years ago)
Launch vehicle
FALCON 9
Launch site
Air Force Western Test Range (AFWTR)
Object type
Payload
Rocket body
Debris
Shape & HBR
Box + 2 Pan, 17.7 m
Radar Cross Section
33.884 m², Large (>1 m²)

Expand to show TLE details & history
Last TLE update: 1 day ago

TLE from 1 day ago
0 STARLINK-32650
1 62231U 24231P   26170.55233823  .00011932  00000-0  39539-3 0  9991
2 62231  53.1613 106.5150 0001406  89.0612 271.0550 15.31721396 87362
Epoch: 2026-06-19T13:15Z
TLE epoch observation values (Epoch: 2026-06-19T13:15:22.023Z)
Latitude
-0.00004°
Longitude
-0.10647°
Altitude
471.559 km
Speed
7.631 km/s
True Right ascension
07h 06m 03s
True Declination
0° 00' 00"
Sunlit
Object was in daylight at epoch
Visualization orbit readout
Latitude
Unknown
Longitude
Unknown
Altitude
Unknown
Speed
Unknown
Apparent Right ascension
Unknown
Apparent Declination
Unknown
Sunlit
N/A
Visualization observer readout
Local Sidereal Time
07:24:29
Azimuth
Unknown
Elevation
Unknown
Doppler factor
Unknown
Orbital elements
Apogee altitude
471.896 km
Perigee altitude
469.97 km
Semi-major axis
6,849.07 km
Eccentricity
0.00014
Inclination
53.1613°
RAAN
106.515°
Arg. of periapsis
89.0612°
True anomaly
271.03889°
Mean anomaly
271.055°
Eccentric anomaly
271.04695°
Mean motion
3.82909 °/min
Orbital period
94.02 mins
BSTAR
0.00039539
Loading maneuver chart data...
Computing Atmospheric mass density...
Loading historical data...
Loading historical data...
Loading historical data...
Loading historical data...
Loading historical data...
Loading historical data...
Loading historical data...

Documentation

Showing up to 5 results
|